This is the latest recevied weather packets stored in our database for station/object F4THN-13. If no packets are shown the sender has not sent any weather packets the latest 10 day(s).
| Time | Temp. | Humidity | Pressure | Rain* | Wind** | Luminosity | Snow |
|---|---|---|---|---|---|---|---|
| 1777876374 | 12.78° C | 76% | 1014.8 hPa | 2.03 mm | - | - | - |
| 1777874874 | 12.78° C | 75% | 1014.7 hPa | 1.02 mm | - | - | - |
| 1777873374 | 12.78° C | 75% | 1014.6 hPa | 0.51 mm | - | - | - |
| 1777871874 | 12.78° C | 73% | 1014.5 hPa | 0.51 mm | - | - | - |
| 1777870374 | 13.33° C | 67% | 1014.2 hPa | 0.51 mm | - | - | - |
| 1777868874 | 13.33° C | 67% | 1014 hPa | 0 mm | - | - | - |
| 1777867373 | 13.33° C | 67% | 1014.2 hPa | 0 mm | - | - | - |
| 1777865873 | 13.89° C | 63% | 1014.2 hPa | 0 mm | - | - | - |
| 1777864373 | 13.89° C | 62% | 1014.3 hPa | 0 mm | - | - | - |
| 1777862873 | 13.89° C | 59% | 1014.3 hPa | 0 mm | - | - | - |
| 1777861373 | 13.89° C | 59% | 1014.3 hPa | 0 mm | - | - | - |
| 1777859873 | 13.89° C | 60% | 1014.3 hPa | 0 mm | - | - | - |
| 1777858372 | 13.89° C | 60% | 1014.5 hPa | 0 mm | - | - | - |
| 1777856872 | 13.33° C | 62% | 1014.3 hPa | 0 mm | - | - | - |
| 1777855372 | 13.33° C | 60% | 1014.3 hPa | 0 mm | - | - | - |
| 1777853872 | 13.89° C | 59% | 1014.6 hPa | 0 mm | - | - | - |
| 1777852372 | 14.44° C | 55% | 1014.7 hPa | 0 mm | - | - | - |
| 1777850872 | 14.44° C | 55% | 1015.1 hPa | 0 mm | - | - | - |
| 1777849372 | 14.44° C | 55% | 1015.3 hPa | 0 mm | - | - | - |
| 1777847871 | 14.44° C | 55% | 1015 hPa | 0 mm | - | - | - |
| 1777846371 | 15° C | 54% | 1015.1 hPa | 0 mm | - | - | - |
| 1777844871 | 15° C | 54% | 1015.3 hPa | 0 mm | - | - | - |
| 1777843371 | 15° C | 53% | 1015.2 hPa | 0 mm | - | - | - |
| 1777841871 | 14.44° C | 55% | 1015.1 hPa | 0 mm | - | - | - |
| 1777840371 | 14.44° C | 56% | 1015.2 hPa | 0 mm | - | - | - |
* Rain latest hour (hover to see other rain measurements)
** Current wind speed in m/s (hover to see current wind gust speed)